Location: Unspecified
(47.9110°N, 14.3980°E)
Time: 16:17:28
(UTC+00:00)

Lacrosse 5 - Pass Details

Date: 06 August 2020
Orbit: 716 x 722 km, 57.0° (Epoch: 21 September)

Event Time Altitude Azimuth Distance (km) Brightness Sun altitude
Rises 21:41:18 0° 306° (NW) 3,134 6.1 -22.8°
Reaches altitude 10° 21:43:42 10° 308° (NW) 2,212 5.2 -23.0°
Maximum altitude 21:48:47 74° 34° (NNE) 754 1.9 -23.3°
Enters shadow 21:50:00 51° 102° (ESE) 901 2.1 -23.4°
